Other Surface Observations
Issued by NWS

Home | Current Version | Previous Version | Text Only | Print | Product List | Glossary On
Versions: 1 2 3 4 5 6 7 8 9 10 11 12 13 14 15 16 17 18 19 20 21 22 23 24 25 26 27 28 29 30 31 32 33 34 35 36 37 38 39 40 41 42 43 44 45 46 47 48 49 50
000
SXUS52 KTAE 011405
OSOTAE
OSOTAE
North Florida/South Alabama/Southwest Georgia Weather Roundup
National Weather Service Tallahassee Florida
1000 AM EDT TUE SEP 01 2015

Note: "fair" indicates few or no clouds below 12,000 feet with no
significant weather and/or obstructions to visibility.

!FLZ017-115-028-034-025-011500
...North Florida...

CITY           SKY/WX    TMP DP  RH WIND       PRES   REMARKS
TALLAHASSEE    PTSUNNY   84  74  71 NE8       30.08S HX  91
APALACHICOLA   CLOUDY    76  75  97 NE7       30.06S
PERRY          MOSUNNY   82  75  80 NE3       30.08S
CROSS CITY       N/A     82  76  81 SE6       30.07S
JACKSONVILLE   PTSUNNY   81  78  91 NE3       30.08R
$$

!FLZ112-006-005-002-011-011500
...Florida Panhandle...

CITY           SKY/WX    TMP DP  RH WIND       PRES   REMARKS
MARIANNA       MOSUNNY   81  74  79 VRB3      30.08R
BONIFAY        NOT AVBL
PANAMA CITY NW FAIR      82  73  74 N5        30.07R
TYNDALL AFB    MOSUNNY   84  76  76 N6        30.07R HX  92
TYND DRONE APT FAIR      84  77  80 N9        30.07R HX  93
DE FUNIAK SPR  FAIR      79  71  77 N7        30.09F
EGLIN AFB      PTSUNNY   85  69  58 N5        30.07S
DESTIN         MOSUNNY   83  71  67 N7        30.07S
HURLBURT       MOSUNNY   83  69  62 N12       30.06S
CRESTVIEW      MOSUNNY   82  69  64 N5        30.09F
PENSACOLA      MOSUNNY   82  69  64 N9        30.07F
$$

!ALZ063-066-011500
...South Alabama...

CITY           SKY/WX    TMP DP  RH WIND       PRES   REMARKS
DOTHAN         MOSUNNY   80  72  76 VRB3      30.13S
OZARK CAIRNS   PTSUNNY   80  71  75 NE3       30.09S
FT RUCKER HELI MOSUNNY   80  71  74 CALM      30.09S
RUCKER HELI 3  FAIR      81  70  68 N3        30.11S
RUCKER HELI 2  NOT AVBL
FLORALA APT    MOSUNNY   82  70  66 N3        30.11S
ANDALUSIA      PTSUNNY   84  72  67 CALM      30.09S
TROY           MOSUNNY   78  72  81 E3        30.11S
EUFALA         FAIR      82  73  74 CALM      30.10S
MOBILE         MOSUNNY   82  71  69 N5        30.09S
$$

!GAZ120>161-011500
...Southwest and South Central Georgia...

CITY           SKY/WX    TMP DP  RH WIND       PRES   REMARKS
THOMASVILLE    FAIR      79  75  89 NE7       30.11S
BAINBRIDGE     SUNNY     81  73  78 E3        30.10R
MOODY AFB      CLOUDY    76  74  94 NE2       30.10R
VALDOSTA       CLOUDY    79  76  90 NE5       30.10R
MOULTRIE       SUNNY     81  73  78 N5        30.12R
BLAKELY        MOSUNNY   81  73  78 CALM      30.11R
ALBANY         SUNNY     82  73  74 NE3       30.12S
TIFTON         FAIR      77  75  93 N5        30.11S
FITZGERALD     PTSUNNY   78  77  96 NE3       30.14S FOG
CORDELE        FAIR      83  76  80 E5        30.13S HX  90
AMERICUS       FAIR      79  77  94 CALM      30.14F
HOMERVILLE     CLOUDY    81  79  94 CALM      30.11R
$$

!GMZ750-755-770-775-011500
...Coastal and Buoy Obs...

STATION/POSITION TIME  TEMP    WIND        PRES    VSBY  WAVE
                       AIR SEA DIR/SP/G                  HT/PER
                 (UTC) (F)     (DEG/KT/KT) (MB)    (MI)  (FT/S)
KEATON BEACH     1400   80      40/  4/  6 1018.4R
CEDAR KEY        1300   78      90/ 11/ 12 1018.2R
C TOWER          1400   77     360/ 10/ 12 1018.3R
APALACHICOLA BUO 1350   81 86  350/ 10/ 12 1017.0R         2/ 5
PANAMA CITY BUOY 1250   84 86   20/ 10/ 14 1017.2          1/ 5
MOBILE BUOY      1350   83 86   30/ 10/ 12 1018.1R         1/ 7
ORANGE BCH AL BU 1350   81 85   10/ 12/ 16 1017.3F         1/ 2
$$



USA.gov is the U.S. government's official web portal to all federal, state and local government web resources and services.